Weather History for KBIV - October, 2013

Change the Weather History Date:

Wednesday, October 16, 2013

  Actual Average Record
Temperature  
Mean Temperature 55 °F 53 °F  
Max Temperature 57 °F 62 °F 82 °F (1956)
Min Temperature 53 °F 43 °F 26 °F (1991)
Degree Days  
Heating Degree Days 10 13  
Month to date heating degree days 91 169  
Since 1 July heating degree days 223 299  
Cooling Degree Days 0 0  
Month to date cooling degree days 14 10  
Year to date cooling degree days 811 692  
Growing Degree Days 6 (Base 50)    
Moisture  
Dew Point 49 °F    
Average Humidity 80    
Maximum Humidity 93    
Minimum Humidity 66    
Precipitation  
Precipitation 0.32 in 0.13 in 1.03 in (1993)
Month to date precipitation 1.79 1.73  
Year to date precipitation 30.98 28.84  
Sea Level Pressure  
Sea Level Pressure 29.85 in    
Wind  
Wind Speed 11 mph (WSW)    
Max Wind Speed 21 mph    
Max Gust Speed 26 mph    
Visibility 8 miles    
Events Rain    
T = Trace of Precipitation, MM = Missing Value Source: NWS Daily Summary

Daily Weather History Graph

Daily Weather History Graph

Search for Another Location

Airport or City:

Trip Planner

Search our weather history database for the weather conditions in past years. The results will help you decide how hot, cold, wet, or windy it might be!

Date:

Astronomy

Oct. 16, 2013 Rise Set
Actual Time 7:59 AM EDT 6:59 PM EDT
Civil Twilight 7:30 AM EDT 7:28 PM EDT
Nautical Twilight 6:57 AM EDT 8:01 PM EDT
Astronomical Twilight 6:25 AM EDT 8:33 PM EDT
Moon 5:41 PM EDT (10/16) 5:23 AM EDT (10/16)
Length of Visible Light 11h 57m
Length of Day
11h 00m
Waxing Gibbous, 94% of the Moon is Illuminated
Oct 16
Waxing Gibbous
Oct 18
Full
Oct 26
Last Quarter
Nov 3
New
Nov 10
First Quarter

Hourly Weather History & Observations

Time (EDT) Temp. Dew Point Humidity Pressure Visibility Wind Dir Wind Speed Gust Speed Precip Events Conditions
12:01 AM 60.8 °F 53.6 °F 77% 29.82 in 10.0 mi West 11.5 mph - N/A   Mostly Cloudy
12:39 AM 57.2 °F 50.0 °F 77% 29.83 in 10.0 mi West 11.5 mph 20.7 mph N/A   Overcast
12:53 AM 57.9 °F 48.9 °F 72% 29.83 in 10.0 mi West 10.4 mph 16.1 mph N/A   Overcast
1:53 AM 55.9 °F 46.9 °F 72% 29.83 in 10.0 mi West 6.9 mph - N/A   Mostly Cloudy
2:53 AM 55.9 °F 45.0 °F 67% 29.83 in 10.0 mi West 11.5 mph 20.7 mph N/A   Overcast
3:53 AM 55.0 °F 45.0 °F 69% 29.82 in 10.0 mi WSW 17.3 mph - N/A   Mostly Cloudy
4:53 AM 53.1 °F 45.0 °F 74% 29.81 in 10.0 mi WSW 13.8 mph 26.5 mph N/A   Scattered Clouds
5:06 AM 53.6 °F 44.6 °F 72% 29.81 in 10.0 mi WSW 17.3 mph 23.0 mph N/A   Mostly Cloudy
5:53 AM 53.1 °F 46.0 °F 77% 29.81 in 10.0 mi WSW 12.7 mph - N/A   Overcast
6:37 AM 53.6 °F 44.6 °F 72% 29.81 in 10.0 mi WSW 15.0 mph 23.0 mph N/A   Overcast
6:53 AM 53.1 °F 46.0 °F 77% 29.81 in 10.0 mi WSW 13.8 mph - N/A   Overcast
7:49 AM 53.6 °F 44.6 °F 72% 29.81 in 10.0 mi WSW 16.1 mph 24.2 mph N/A   Overcast
7:53 AM 53.1 °F 45.0 °F 74% 29.82 in 10.0 mi WSW 15.0 mph 24.2 mph N/A   Overcast
8:01 AM 53.6 °F 44.6 °F 72% 29.82 in 10.0 mi WSW 15.0 mph - N/A   Overcast
8:53 AM 53.1 °F 45.0 °F 74% 29.83 in 10.0 mi WSW 16.1 mph - N/A   Overcast
9:53 AM 53.1 °F 45.0 °F 74% 29.83 in 10.0 mi WSW 16.1 mph 21.9 mph N/A   Overcast
10:53 AM 54.0 °F 46.0 °F 75% 29.83 in 10.0 mi WSW 11.5 mph - N/A   Overcast
11:53 AM 54.0 °F 46.9 °F 77% 29.85 in 10.0 mi WSW 12.7 mph 20.7 mph N/A   Overcast
12:53 PM 53.1 °F 50.0 °F 89% 29.86 in 5.0 mi WSW 13.8 mph - 0.01 in Rain Light Rain
1:09 PM 53.6 °F 50.0 °F 88% 29.85 in 5.0 mi WSW 13.8 mph - 0.01 in Rain Light Rain
1:50 PM 53.6 °F 50.0 °F 88% 29.85 in 8.0 mi West 6.9 mph - 0.02 in Rain Light Rain
1:53 PM 53.1 °F 50.0 °F 89% 29.85 in 10.0 mi West 5.8 mph - 0.02 in Rain Light Rain
2:20 PM 53.6 °F 48.2 °F 82% 29.84 in 10.0 mi West 10.4 mph 18.4 mph 0.00 in   Overcast
2:36 PM 53.6 °F 48.2 °F 82% 29.84 in 10.0 mi West 9.2 mph - 0.00 in   Overcast
2:53 PM 54.0 °F 48.9 °F 83% 29.85 in 10.0 mi West 6.9 mph 17.3 mph 0.00 in   Overcast
3:16 PM 55.4 °F 48.2 °F 77% 29.85 in 10.0 mi West 9.2 mph - N/A   Overcast
3:53 PM 55.0 °F 48.9 °F 80% 29.85 in 10.0 mi West 10.4 mph - N/A   Overcast
4:53 PM 55.0 °F 48.9 °F 80% 29.85 in 10.0 mi West 9.2 mph - N/A   Overcast
5:32 PM 53.6 °F 48.2 °F 82% 29.85 in 10.0 mi WSW 9.2 mph - 0.00 in Rain Light Rain
5:53 PM 55.0 °F 50.0 °F 83% 29.86 in 10.0 mi WSW 11.5 mph 20.7 mph 0.00 in   Overcast
6:01 PM 53.6 °F 50.0 °F 88% 29.86 in 8.0 mi WSW 12.7 mph 20.7 mph 0.01 in Rain Light Rain
6:13 PM 53.6 °F 51.8 °F 94% 29.86 in 9.0 mi WSW 11.5 mph - 0.01 in Rain Light Rain
6:40 PM 53.6 °F 51.8 °F 94% 29.86 in 8.0 mi WSW 10.4 mph - 0.02 in Rain Light Rain
6:53 PM 53.1 °F 51.1 °F 93% 29.81 in 6.0 mi WSW 8.1 mph - 0.03 in Rain Light Rain
7:27 PM 53.6 °F 51.8 °F 94% 29.87 in 10.0 mi West 8.1 mph - 0.04 in   Overcast
7:53 PM 53.1 °F 51.1 °F 93% 29.83 in 7.0 mi West 11.5 mph - 0.04 in Rain Light Rain
8:05 PM 53.6 °F 51.8 °F 94% 29.88 in 5.0 mi WSW 9.2 mph - 0.02 in Rain Light Rain
8:21 PM 53.6 °F 51.8 °F 94% 29.88 in 6.0 mi West 9.2 mph - 0.02 in Rain Light Rain
8:37 PM 53.6 °F 51.8 °F 94% 29.88 in 8.0 mi West 6.9 mph - 0.03 in Rain Light Rain
8:53 PM 53.1 °F 52.0 °F 96% 29.83 in 4.0 mi WSW 9.2 mph - 0.06 in Rain Light Rain
8:58 PM 53.6 °F 51.8 °F 94% 29.88 in 3.0 mi West 6.9 mph - 0.02 in Rain Heavy Rain
9:00 PM 53.6 °F 51.8 °F 94% 29.88 in 2.5 mi West 6.9 mph - 0.03 in Rain Rain
9:02 PM 53.6 °F 51.8 °F 94% 29.88 in 3.0 mi West 11.5 mph 17.3 mph 0.03 in Rain Rain
9:09 PM 53.6 °F 51.8 °F 94% 29.88 in 4.0 mi West 9.2 mph 17.3 mph 0.04 in Rain Light Rain
9:53 PM 54.0 °F 51.1 °F 90% 29.89 in 10.0 mi WSW 10.4 mph 17.3 mph 0.05 in   Overcast
10:10 PM 53.6 °F 51.8 °F 94% 29.89 in 4.0 mi WSW 13.8 mph 21.9 mph 0.05 in Rain Heavy Rain
10:53 PM 54.0 °F 52.0 °F 93% 29.89 in 10.0 mi West 6.9 mph - 0.06 in   Overcast
11:27 PM 53.6 °F 51.8 °F 94% 29.89 in 5.0 mi West 5.8 mph - 0.02 in Rain Rain
11:38 PM 53.6 °F 51.8 °F 94% 29.89 in 4.0 mi West 4.6 mph - 0.03 in Rain Light Rain
11:51 PM 53.6 °F 51.8 °F 94% 29.89 in 5.0 mi WNW 5.8 mph - 0.04 in Rain Light Rain
11:53 PM 53.1 °F 52.0 °F 96% 29.89 in 5.0 mi West 6.9 mph - 0.04 in Rain Light Rain